Location: Camp Crooked Creek
(37.9149°N, 85.6607°W)
Time: 01:46:21
(UTC-04:00)

Amateur Radio Satellites - All Passes

Search period start: 23 May 2015 01:16
Search period end: 24 May 2015 01:16
Location: Camp Crooked Creek, 37.9149°N, 85.6607°W

Satellite Date Start Highest point End Downlink Frequencies (MHz)
Time Altitude Azimuth
SWISSCUBE 23 May 01:18:26 01:20:43 14° 65° (ENE) 01:23:14 437.505
TIGRISAT 23 May 01:21:14 01:24:42 22° 291° (WNW) 01:28:00 435.000
NANOSAT C BR1 23 May 01:35:10 01:38:59 31° 289° (WNW) 01:42:43 145.865
SPROUT 23 May 01:38:28 01:42:37 45° 261° (W) 01:46:47 437.525
QB50P2 23 May 01:39:47 01:43:27 27° 289° (WNW) 01:47:01 145.880/145.840
UNISAT 6 23 May 01:40:30 01:42:54 14° 294° (WNW) 01:45:06 437.425
POPSAT HIP 1 23 May 01:53:40 01:56:53 20° 291° (WNW) 01:59:58 437.405
DUCHIFAT 1 23 May 01:59:43 02:02:41 18° 292° (WNW) 02:05:30 145.980
CUSAT 1 23 May 02:02:30 02:10:05 69° 265° (W) 02:16:01 437.405
GONETS M04 23 May 02:07:52 02:16:44 88° 83° (E) 02:25:28
O/OREOS (USA 219) 23 May 02:11:14 02:12:32 11° 52° (NE) 02:14:06 437.305
PCSat 23 May 02:17:16 02:22:14 40° 111° (ESE) 02:27:18 145.827
TISAT 1 23 May 02:21:16 02:24:27 20° 267° (W) 02:27:34 437.305
KKS-1 23 May 02:30:35 02:32:03 12° 65° (ENE) 02:33:45 437.445
ITUPSAT 1 23 May 02:34:53 02:39:38 78° 77° (ENE) 02:44:24 437.325
DANDE 23 May 02:42:11 02:49:52 46° 270° (W) 02:56:04 436.750
ISS 23 May 02:42:45 02:45:46 35° 327° (NNW) 02:48:49 145.825
BEESAT 23 May 02:45:36 02:50:22 80° 258° (WSW) 02:55:08 436.000
Cosmos 2499 23 May 02:51:19 02:57:09 28° 71° (ENE) 03:03:09 435.465 / 435.565
SWISSCUBE 23 May 02:53:26 02:58:08 60° 259° (W) 03:02:51 437.505
Oscar 19 23 May 03:06:11 03:11:20 67° 101° (E) 03:16:27 437.125/150
ITAMSAT 1 23 May 03:10:57 03:14:43 20° 93° (E) 03:18:38 435.822/435.867
Gurwin Techsat 1B 23 May 03:21:26 03:25:42 25° 94° (E) 03:30:04 435.225
STARS 23 May 03:43:05 03:47:17 44° 73° (ENE) 03:51:33 437.465
O/OREOS (USA 219) 23 May 03:48:07 03:52:34 71° 251° (WSW) 03:57:00 437.305
BEESAT 2 23 May 03:58:06 03:59:38 12° 42° (NE) 04:01:21 435.950
PCSat 23 May 04:01:09 04:05:48 28° 309° (NW) 04:10:23 145.827
KKS-1 23 May 04:03:45 04:08:12 65° 260° (W) 04:12:40 437.445
GONETS M04 23 May 04:07:15 04:12:32 17° 280° (W) 04:17:13
VERMONT LUNAR 23 May 04:14:20 04:17:11 29° 152° (SSE) 04:20:02 437.305
ISS 23 May 04:22:46 04:22:58 10° 346° (NNW) 04:23:08 145.825
AO-7 23 May 04:30:48 04:36:41 22° 92° (E) 04:42:57 29.400- 29.500
SO-50 23 May 04:34:54 04:38:58 32° 113° (ESE) 04:43:14 436.795
Cosmos 2499 23 May 04:43:53 04:50:33 45° 269° (W) 04:57:12 435.465 / 435.565
Oscar 19 23 May 04:47:22 04:50:11 14° 296° (WNW) 04:52:46 437.125/150
HORYU 2 23 May 04:48:56 04:52:45 28° 96° (E) 04:56:36 437.375
ITAMSAT 1 23 May 04:49:30 04:54:27 44° 289° (WNW) 04:59:22 435.822/435.867
BEESAT 3 23 May 04:51:41 04:55:37 45° 55° (NE) 04:59:29 437.485
AIST 2 23 May 04:56:14 04:58:32 14° 44° (NE) 05:00:56 435.215
MOZHAYETS 4 23 May 05:00:22 05:04:31 36° 72° (ENE) 05:08:44
Gurwin Techsat 1B 23 May 05:00:54 05:05:48 38° 290° (WNW) 05:10:38 435.225
STARS 23 May 05:21:20 05:24:01 15° 269° (W) 05:26:31 437.465
JAS-2 23 May 05:25:12 05:30:20 60° 101° (E) 05:35:33 435.910
PHONESAT 2.4 23 May 05:26:05 05:29:12 31° 152° (SSE) 05:32:20 2401.200-2431.200
BEESAT 2 23 May 05:34:11 05:38:18 74° 241° (WSW) 05:42:19 435.950
VERMONT LUNAR 23 May 05:51:03 05:54:15 71° 347° (NNW) 05:57:27 437.305
Cosmos 2491 23 May 06:00:08 06:00:58 10° 55° (NE) 06:02:37 435.465 / 435.565
SO-50 23 May 06:15:24 06:19:31 29° 311° (NW) 06:23:43 436.795
AO-7 23 May 06:21:58 06:30:19 74° 290° (WNW) 06:38:38 29.400- 29.500
HORYU 2 23 May 06:25:42 06:29:17 24° 291° (WNW) 06:32:45 437.375
CUBESAT XI-V 23 May 06:27:11 06:30:46 24° 69° (ENE) 06:34:29 437.345
BEESAT 3 23 May 06:31:02 06:33:15 14° 250° (WSW) 06:35:15 437.485
AIST 2 23 May 06:33:23 06:37:33 61° 242° (WSW) 06:41:37 435.215
PRISM 23 May 06:34:51 06:36:17 12° 66° (ENE) 06:37:55 437.425
MOZHAYETS 4 23 May 06:38:29 06:41:53 20° 267° (W) 06:45:09
Cubesat XI-IV 23 May 06:49:50 06:52:39 15° 90° (E) 06:55:46 437.490
PHONESAT 2.4 23 May 07:03:43 07:07:11 73° 347° (NNW) 07:10:39 2401.200-2431.200
M-CUBED/EXP-1 PRIME 23 May 07:05:46 07:09:14 24° 67° (ENE) 07:12:35 437.505
JAS-2 23 May 07:12:10 07:15:03 15° 296° (WNW) 07:17:42 435.910
AUBIESAT-1 23 May 07:17:59 07:21:40 28° 67° (ENE) 07:25:10 437.475
VERMONT LUNAR 23 May 07:28:31 07:31:40 51° 4° (N) 07:34:48 437.305
STRAND 1 23 May 07:35:27 07:40:23 55° 73° (ENE) 07:45:23 437.568
ISS 23 May 07:35:43 07:38:09 19° 26° (NNE) 07:40:36 145.825
Cosmos 2491 23 May 07:51:28 08:00:12 62° 79° (ENE) 08:08:55 435.465 / 435.565
CUBESAT XI-V 23 May 08:04:01 08:08:05 30° 264° (W) 08:12:08 437.345
PRISM 23 May 08:07:21 08:11:20 52° 260° (W) 08:15:20 437.425
AIST 1 23 May 08:07:32 08:08:08 10° 68° (ENE) 08:09:01
CUTE-I 23 May 08:08:38 08:14:02 86° 101° (ESE) 08:19:25 437.470
AO-7 23 May 08:17:09 08:21:55 16° 308° (NW) 08:26:14 29.400- 29.500
Cubesat XI-IV 23 May 08:27:58 08:33:16 63° 287° (WNW) 08:38:34 437.490
BRITE-PL 23 May 08:35:44 08:39:07 17° 88° (E) 08:42:42 437.365/2234.400
M-CUBED/EXP-1 PRIME 23 May 08:40:08 08:43:59 28° 258° (WSW) 08:47:34 437.505
YUBILEINY 23 May 08:41:59 08:50:32 61° 92° (E) 08:59:07 435.215
PHONESAT 2.4 23 May 08:42:06 08:45:30 54° 4° (N) 08:48:55 2401.200-2431.200
RS-15 23 May 08:47:30 08:53:40 18° 102° (ESE) 09:00:40 29.354- 29.394
AUBIESAT-1 23 May 08:52:51 08:56:24 23° 259° (W) 08:59:40 437.475
GOMX 1 23 May 09:00:29 09:03:53 17° 89° (E) 09:07:24 467.674
VERMONT LUNAR 23 May 09:05:46 09:08:58 68° 200° (SSW) 09:12:09 437.305
ISS 23 May 09:11:35 09:14:48 55° 223° (SW) 09:18:00 145.825
STRAND 1 23 May 09:16:54 09:20:01 16° 270° (W) 09:22:54 437.568
CANX-2 23 May 09:26:08 09:28:47 17° 92° (E) 09:31:35 2200.000
CUTE 1.7 + AOD 2 23 May 09:30:22 09:33:01 17° 92° (E) 09:35:49 437.475
HO-68 23 May 09:37:16 09:43:25 31° 95° (E) 09:49:40 435.675
AIST 1 23 May 09:42:00 09:46:19 61° 265° (W) 09:50:38
Cosmos 2491 23 May 09:49:29 09:56:30 26° 276° (W) 10:03:11 435.465 / 435.565
CUTE-I 23 May 09:51:24 09:53:28 12° 298° (WNW) 09:55:13 437.470
SEEDS 23 May 09:59:01 10:02:39 29° 96° (E) 10:06:20 437.485
ANTELSAT 23 May 10:09:10 10:10:22 11° 64° (ENE) 10:11:51 437.575/2403.000
BRITE-PL 23 May 10:12:31 10:18:09 62° 286° (WNW) 10:23:34 437.365/2234.400
CUBEBUG 2 23 May 10:15:55 10:17:48 13° 88° (E) 10:19:55 437.445
COMPASS 1 23 May 10:18:59 10:22:53 40° 98° (E) 10:26:48 437.405
PHONESAT 2.4 23 May 10:20:16 10:23:43 68° 202° (SSW) 10:27:10 2401.200-2431.200
DOVE 4 23 May 10:20:46 10:25:59 70° 100° (E) 10:30:54 437.250
CINEMA 3 23 May 10:30:30 10:35:02 41° 97° (E) 10:39:21 145.822/145.860
AAUSAT CUBESAT 2 23 May 10:34:43 10:38:46 53° 99° (E) 10:42:48 437.432
ZACube-1 23 May 10:36:15 10:38:10 13° 89° (E) 10:40:18 437.345
GOMX 1 23 May 10:37:06 10:42:26 55° 287° (WNW) 10:47:29 467.674
YUBILEINY 23 May 10:40:39 10:48:00 28° 292° (WNW) 10:55:04 435.215
TIGRISAT 23 May 10:41:18 10:45:00 24° 69° (ENE) 10:48:47 435.000
VERMONT LUNAR 23 May 10:44:02 10:45:49 14° 214° (SW) 10:47:32 437.305
Cosmos 2504 23 May 10:44:06 10:51:34 37° 89° (E) 10:58:47 435.465 / 435.565
NANOSAT C BR1 23 May 10:52:14 10:54:04 13° 66° (ENE) 10:56:07 145.865
RS-15 23 May 10:53:45 11:04:39 87° 118° (ESE) 11:15:49 29.354- 29.394
QB50P2 23 May 10:56:28 10:58:50 15° 67° (ENE) 11:01:24 145.880/145.840
Oscar 11 23 May 10:56:53 11:00:58 42° 98° (E) 11:05:03 145.826/435.025
UNISAT 6 23 May 10:59:09 11:03:28 37° 72° (ENE) 11:07:48 437.425
CANX-2 23 May 11:01:01 11:04:53 35° 287° (WNW) 11:08:42 2200.000
CUTE 1.7 + AOD 2 23 May 11:05:14 11:09:06 35° 288° (WNW) 11:12:55 437.475
HUMSAT D 23 May 11:05:32 11:06:56 12° 89° (E) 11:08:35 437.325/437.525
PCSat 23 May 11:07:03 11:11:22 24° 50° (NE) 11:15:47 145.827
POPSAT HIP 1 23 May 11:09:03 11:12:08 20° 69° (ENE) 11:15:21 437.405
UWE-3 23 May 11:10:28 11:14:42 43° 98° (E) 11:18:47 435.000/436.395/437.385
DUCHIFAT 1 23 May 11:14:19 11:17:35 22° 69° (ENE) 11:20:58 145.980
HO-68 23 May 11:24:34 11:31:21 46° 292° (WNW) 11:38:02 435.675
50 SAT 23 May 11:26:30 11:26:44 10° 89° (E) 11:27:13 437.505
DELFI C3 23 May 11:30:19 11:34:21 79° 103° (ESE) 11:38:21 145.870
FUNcube-1 23 May 11:31:53 11:36:11 58° 100° (E) 11:40:22 145.935
SEEDS 23 May 11:35:10 11:38:19 20° 290° (WNW) 11:41:20 437.485
ANTELSAT 23 May 11:41:54 11:46:37 75° 259° (W) 11:51:19 437.575/2403.000
CUBEBUG 2 23 May 11:50:32 11:54:56 51° 286° (WNW) 11:59:10 437.445
POLYITAN 1 23 May 11:51:53 11:56:08 64° 75° (ENE) 12:00:25 437.675
QB50P1 23 May 11:52:18 11:56:31 63° 75° (ENE) 12:00:47 145.935-145.965
BUGSAT 1 23 May 11:55:45 11:59:39 44° 73° (ENE) 12:03:39 437.445
COMPASS 1 23 May 11:55:47 11:58:17 15° 292° (WNW) 12:00:36 437.405
PHONESAT 2.4 23 May 11:59:22 12:01:29 15° 214° (SW) 12:03:30 2401.200-2431.200
DOVE 4 23 May 12:00:27 12:03:06 14° 296° (WNW) 12:05:27 437.250
CINEMA 3 23 May 12:08:28 12:11:54 19° 293° (WNW) 12:15:06 145.822/145.860
ESTCUBE 1 23 May 12:08:33 12:11:49 20° 93° (E) 12:15:13 437.505/2401.250
ZACube-1 23 May 12:10:42 12:14:55 47° 286° (WNW) 12:19:00 437.345
AAUSAT CUBESAT 2 23 May 12:12:22 12:13:59 12° 293° (WNW) 12:15:21 437.432
TIGRISAT 23 May 12:17:21 12:21:36 32° 264° (W) 12:25:47 435.000
UKube-1 23 May 12:21:05 12:25:28 87° 284° (WNW) 12:29:49 .
VELOX 1 23 May 12:21:28 12:25:48 47° 99° (E) 12:30:08 145.980
DX 1 23 May 12:23:36 12:28:00 76° 285° (WNW) 12:32:23 434.975-435.025
NANOSAT C BR1 23 May 12:25:20 12:29:30 52° 261° (W) 12:33:42 145.865
QB50P2 23 May 12:30:18 12:34:23 44° 261° (W) 12:38:32 145.880/145.840
CUBEBUG 1 23 May 12:32:03 12:35:59 31° 96° (E) 12:39:58 437.445
Oscar 11 23 May 12:34:11 12:36:51 16° 292° (WNW) 12:39:19 145.826/435.025
UNISAT 6 23 May 12:36:50 12:40:22 20° 267° (W) 12:43:45 437.425
Cosmos 2504 23 May 12:36:53 12:44:53 43° 284° (WNW) 12:52:20 435.465 / 435.565
HUMSAT D 23 May 12:39:01 12:43:05 49° 285° (WNW) 12:47:02 437.325/437.525
POPSAT HIP 1 23 May 12:43:59 12:47:49 32° 263° (W) 12:51:40 437.405
UWE-3 23 May 12:48:06 12:50:52 16° 293° (WNW) 12:53:26 435.000/436.395/437.385
DUCHIFAT 1 23 May 12:49:34 12:53:17 28° 265° (W) 12:56:57 145.980
PCSat 23 May 12:49:52 12:55:04 47° 248° (WSW) 13:00:12 145.827
AISAT 23 May 12:51:28 12:55:58 75° 284° (WNW) 13:00:26 437.250
50 SAT 23 May 12:58:04 13:01:50 48° 286° (WNW) 13:05:33 437.505
SO-50 23 May 13:08:00 13:11:48 22° 46° (NE) 13:15:41 436.795
RS-15 23 May 13:09:20 13:18:41 30° 325° (NW) 13:28:02 29.354- 29.394
FUNcube-1 23 May 13:10:18 13:12:02 12° 295° (WNW) 13:13:31 145.935
GONETS M04 23 May 13:13:12 13:18:50 20° 82° (E) 13:24:59
CUSAT 1 23 May 13:23:37 13:28:55 25° 84° (E) 13:35:11 437.405
SPROUT 23 May 13:26:56 13:30:53 34° 97° (E) 13:34:51 437.525
BUGSAT 1 23 May 13:33:22 13:35:25 13° 270° (W) 13:37:18 437.445
ESTCUBE 1 23 May 13:44:41 13:48:49 35° 288° (WNW) 13:52:53 437.505/2401.250
VELOX 1 23 May 13:59:18 14:02:00 15° 294° (WNW) 14:04:32 145.980
DANDE 23 May 14:05:59 14:11:56 40° 88° (E) 14:19:19 436.750
TISAT 1 23 May 14:06:10 14:10:27 72° 101° (ESE) 14:14:42 437.305
CUBEBUG 1 23 May 14:08:44 14:12:13 22° 291° (WNW) 14:15:34 437.445
Oscar 19 23 May 14:21:07 14:26:18 81° 77° (ENE) 14:31:33 437.125/150
ITAMSAT 1 23 May 14:27:15 14:31:27 27° 68° (ENE) 14:35:47 435.822/435.867
JUGNU 23 May 14:36:43 14:39:06 13° 178° (S) 14:41:29 437.505
ITUPSAT 1 23 May 14:37:57 14:41:40 23° 94° (E) 14:45:29 437.325
Gurwin Techsat 1B 23 May 14:40:45 14:45:25 33° 70° (ENE) 14:50:11 435.225
SO-50 23 May 14:47:52 14:52:40 49° 244° (WSW) 14:57:21 436.795
BEESAT 23 May 14:48:00 14:52:08 30° 96° (E) 14:56:20 436.000
SWISSCUBE 23 May 14:55:36 15:00:03 39° 98° (E) 15:04:32 437.505
SPROUT 23 May 15:03:36 15:06:46 19° 291° (WNW) 15:09:47 437.525
CUSAT 1 23 May 15:04:10 15:10:55 62° 284° (WNW) 15:18:59 437.405
GONETS M04 23 May 15:05:59 15:14:50 78° 278° (W) 15:23:44
Cosmos 2499 23 May 15:25:55 15:32:17 26° 87° (E) 15:38:35 435.465 / 435.565
AO-7 23 May 15:28:11 15:34:43 28° 59° (ENE) 15:41:31 29.400- 29.500
RS-15 23 May 15:30:09 15:36:25 16° 360° (N) 15:42:51 29.354- 29.394
JAS-2 23 May 15:35:45 15:41:00 25° 68° (ENE) 15:45:59 435.910
HORYU 2 23 May 15:45:52 15:49:19 23° 69° (ENE) 15:52:52 437.375
SRMSAT 23 May 15:46:22 15:48:31 12° 175° (S) 15:50:43 437.500
DANDE 23 May 15:49:01 15:55:14 38° 291° (WNW) 16:02:37 436.750
KKS-1 23 May 15:57:03 16:00:51 27° 95° (E) 16:04:41 437.445
Oscar 19 23 May 16:05:17 16:06:24 10° 273° (W) 16:07:06 437.125/150
ITAMSAT 1 23 May 16:06:10 16:10:51 34° 263° (W) 16:15:31 435.822/435.867
ITUPSAT 1 23 May 16:15:19 16:19:38 34° 289° (WNW) 16:23:54 437.325
Gurwin Techsat 1B 23 May 16:20:53 16:25:26 28° 265° (W) 16:29:55 435.225
O/OREOS (USA 219) 23 May 16:21:10 16:23:51 16° 101° (E) 16:26:43 437.305
BEESAT 23 May 16:25:54 16:29:54 26° 291° (WNW) 16:33:47 436.000
JUGNU 23 May 16:25:57 16:27:15 11° 188° (S) 16:28:29 437.505
SWISSCUBE 23 May 16:34:07 16:37:40 21° 293° (WNW) 16:41:06 437.505
CUSAT 1 23 May 16:53:05 16:55:46 12° 306° (NW) 16:57:57 437.405
GONETS M04 23 May 17:08:51 17:13:31 14° 301° (WNW) 17:17:34
STARS 23 May 17:10:38 17:15:04 71° 285° (WNW) 17:19:27 437.465
Cosmos 2499 23 May 17:16:55 17:25:05 57° 281° (W) 17:32:39 435.465 / 435.565
AO-7 23 May 17:18:47 17:27:00 65° 257° (WSW) 17:35:15 29.400- 29.500
JAS-2 23 May 17:19:00 17:25:53 53° 260° (W) 17:31:58 435.910
HORYU 2 23 May 17:21:49 17:25:49 31° 263° (W) 17:29:48 437.375
KKS-1 23 May 17:33:41 17:37:25 25° 291° (WNW) 17:41:02 437.445
SRMSAT 23 May 17:34:38 17:36:51 12° 185° (S) 17:39:02 437.500
RS-15 23 May 17:44:56 17:54:22 29° 34° (NE) 18:04:24 29.354- 29.394
CUTE-I 23 May 17:51:55 17:54:36 15° 63° (ENE) 17:57:32 437.470
O/OREOS (USA 219) 23 May 17:58:39 18:02:58 42° 296° (WNW) 18:07:16 437.305
Cubesat XI-IV 23 May 18:09:55 18:13:50 22° 66° (ENE) 18:17:53 437.490
MOZHAYETS 4 23 May 18:33:48 18:38:22 73° 283° (WNW) 18:42:55
BEESAT 3 23 May 18:45:00 18:46:41 13° 110° (ESE) 18:48:35 437.485
YUBILEINY 23 May 18:55:03 19:01:57 27° 68° (ENE) 19:09:06 435.215
Cosmos 2491 23 May 19:00:19 19:02:58 12° 78° (ENE) 19:06:24 435.465 / 435.565
BEESAT 2 23 May 19:26:26 19:30:01 30° 114° (ESE) 19:33:41 435.950
CUTE-I 23 May 19:28:52 19:34:09 70° 258° (WSW) 19:39:28 437.470
BRITE-PL 23 May 19:45:26 19:48:06 15° 63° (ENE) 19:51:05 437.365/2234.400
STRAND 1 23 May 19:48:28 19:52:17 21° 93° (E) 19:56:15 437.568
Cubesat XI-IV 23 May 19:48:35 19:53:39 44° 261° (W) 19:58:44 437.490
PRISM 23 May 19:51:47 19:55:04 23° 95° (E) 19:58:26 437.425
RS-15 23 May 19:57:02 20:08:46 86° 60° (ENE) 20:20:58 29.354- 29.394
CUBESAT XI-V 23 May 20:01:38 20:06:21 75° 102° (ESE) 20:11:03 437.345
HO-68 23 May 20:05:24 20:10:18 21° 60° (ENE) 20:15:27 435.675
GOMX 1 23 May 20:07:13 20:10:06 16° 64° (ENE) 20:13:18 467.674
CANX-2 23 May 20:19:32 20:20:23 11° 66° (ENE) 20:21:28 2200.000
BEESAT 3 23 May 20:20:18 20:24:17 51° 304° (NW) 20:28:17 437.485
M-CUBED/EXP-1 PRIME 23 May 20:23:34 20:25:47 17° 99° (E) 20:28:05 437.505
CUTE 1.7 + AOD 2 23 May 20:23:41 20:24:32 11° 66° (ENE) 20:25:37 437.475
AIST 2 23 May 20:29:26 20:33:26 42° 116° (ESE) 20:37:31 435.215
AUBIESAT-1 23 May 20:35:07 20:37:40 21° 100° (E) 20:40:15 437.475
Cosmos 2491 23 May 20:49:48 20:58:32 76° 94° (E) 21:07:22 435.465 / 435.565
SEEDS 23 May 20:50:12 20:52:59 18° 69° (ENE) 20:55:54 437.485
YUBILEINY 23 May 20:50:55 20:59:28 62° 267° (W) 21:07:57 435.215
BEESAT 2 23 May 21:04:46 21:08:09 23° 311° (NW) 21:11:29 435.950
COMPASS 1 23 May 21:09:00 21:12:16 23° 70° (ENE) 21:15:37 437.405
CUBEBUG 2 23 May 21:13:40 21:14:44 11° 64° (ENE) 21:16:06 437.445
BRITE-PL 23 May 21:21:07 21:25:58 65° 260° (W) 21:31:17 437.365/2234.400
DOVE 4 23 May 21:23:51 21:28:44 57° 74° (ENE) 21:33:54 437.250
AAUSAT CUBESAT 2 23 May 21:24:03 21:27:37 29° 72° (ENE) 21:31:15 437.432
STRAND 1 23 May 21:26:52 21:31:41 41° 289° (WNW) 21:36:28 437.568
PRISM 23 May 21:27:02 21:30:29 25° 290° (WNW) 21:33:54 437.425
CINEMA 3 23 May 21:30:01 21:34:22 33° 71° (ENE) 21:38:53 145.822/145.860
ZACube-1 23 May 21:32:27 21:32:53 10° 64° (ENE) 21:33:36 437.345
CUBESAT XI-V 23 May 21:41:51 21:43:14 11° 296° (WNW) 21:44:21 437.345
GOMX 1 23 May 21:42:43 21:47:40 62° 261° (W) 21:52:56 467.674
HO-68 23 May 21:50:12 21:57:24 74° 256° (WSW) 22:04:36 435.675
Oscar 11 23 May 21:50:14 21:53:51 27° 71° (ENE) 21:57:33 145.826/435.025
CANX-2 23 May 21:51:35 21:55:50 64° 259° (W) 22:00:05 2200.000
CUTE 1.7 + AOD 2 23 May 21:55:44 21:59:59 64° 260° (W) 22:04:13 437.475
M-CUBED/EXP-1 PRIME 23 May 21:58:07 22:00:40 20° 294° (WNW) 22:03:08 437.505
UWE-3 23 May 22:05:38 22:09:42 31° 71° (ENE) 22:13:51 435.000/436.395/437.385
AIST 2 23 May 22:09:05 22:12:14 19° 313° (NW) 22:15:20 435.215
AIST 1 23 May 22:09:22 22:13:37 86° 98° (E) 22:17:55
AUBIESAT-1 23 May 22:10:07 22:12:24 17° 295° (WNW) 22:14:34 437.475
RS-15 23 May 22:11:23 22:20:10 24° 256° (WSW) 22:28:29 29.354- 29.394
DELFI C3 23 May 22:16:01 22:19:43 36° 73° (ENE) 22:23:26 145.870
SEEDS 23 May 22:24:38 22:28:33 35° 263° (W) 22:32:26 437.485
FUNcube-1 23 May 22:25:34 22:29:46 38° 73° (ENE) 22:34:02 145.935
Cosmos 2504 23 May 22:31:05 22:38:15 62° 79° (E) 22:45:22 435.465 / 435.565
COMPASS 1 23 May 22:44:16 22:47:51 26° 265° (W) 22:51:22 437.405
CUBEBUG 2 23 May 22:46:05 22:50:50 79° 257° (WSW) 22:55:39 437.445
Cosmos 2491 23 May 22:49:52 22:56:29 22° 295° (WNW) 23:02:45 435.465 / 435.565
AAUSAT CUBESAT 2 23 May 23:00:05 23:03:17 20° 267° (W) 23:06:21 437.432
DOVE 4 23 May 23:03:56 23:06:59 15° 272° (W) 23:09:51 437.250
ZACube-1 23 May 23:04:04 23:08:40 79° 258° (WSW) 23:13:18 437.345
ESTCUBE 1 23 May 23:07:27 23:10:02 16° 67° (ENE) 23:12:49 437.505/2401.250
CINEMA 3 23 May 23:07:27 23:11:35 26° 267° (W) 23:15:43 145.822/145.860
UKube-1 23 May 23:14:00 23:18:16 62° 74° (ENE) 23:22:34 .
DX 1 23 May 23:17:13 23:21:32 74° 76° (ENE) 23:25:54 434.975-435.025
VELOX 1 23 May 23:17:30 23:21:28 34° 71° (ENE) 23:25:31 145.980
Oscar 11 23 May 23:26:27 23:30:01 24° 266° (W) 23:33:30 145.826/435.025
CUBEBUG 1 23 May 23:27:06 23:30:21 22° 69° (ENE) 23:33:44 437.445
HUMSAT D 23 May 23:28:22 23:32:43 89° 78° (ENE) 23:37:04 437.325/437.525
ANTELSAT 23 May 23:36:33 23:40:09 25° 94° (E) 23:43:45 437.575/2403.000
50 SAT 23 May 23:40:28 23:44:28 69° 76° (ENE) 23:48:28 437.505
POLYITAN 1 23 May 23:41:17 23:42:49 12° 89° (E) 23:44:36 437.675
QB50P1 23 May 23:41:25 23:42:52 12° 89° (E) 23:44:35 145.935-145.965
UWE-3 23 May 23:42:22 23:46:14 25° 266° (W) 23:50:02 435.000/436.395/437.385
HO-68 23 May 23:45:20 23:46:29 10° 275° (W) 23:46:55 435.675
AISAT 23 May 23:47:15 23:51:41 79° 76° (ENE) 23:56:09 437.250
DELFI C3 23 May 23:52:32 23:55:00 15° 269° (W) 23:57:18 145.870
FUNcube-1 24 May 00:02:55 00:06:15 19° 268° (W) 00:09:27 145.935
CUSAT 1 24 May 00:04:55 00:09:31 18° 59° (ENE) 00:13:54 437.405
TIGRISAT 24 May 00:10:34 00:14:57 60° 100° (E) 00:19:11 435.000
NANOSAT C BR1 24 May 00:12:21 00:15:59 27° 95° (E) 00:19:40 145.865
ISS 24 May 00:16:14 00:16:27 10° 128° (SE) 00:16:50 145.825
QB50P2 24 May 00:17:28 00:21:20 32° 97° (E) 00:25:12 145.880/145.840
SPROUT 24 May 00:19:55 00:23:12 22° 69° (ENE) 00:26:36 437.525
Cosmos 2504 24 May 00:25:58 00:31:03 20° 276° (W) 00:35:47 435.465 / 435.565
UNISAT 6 24 May 00:29:22 00:33:48 79° 284° (WNW) 00:38:06 437.425
POPSAT HIP 1 24 May 00:30:30 00:34:38 45° 99° (E) 00:38:43 437.405
DUCHIFAT 1 24 May 00:35:25 00:39:35 50° 100° (E) 00:43:43 145.980
ESTCUBE 1 24 May 00:42:17 00:46:35 46° 261° (W) 00:50:54 437.505/2401.250
DANDE 24 May 00:50:18 00:57:23 33° 67° (ENE) 01:03:26 436.750
VELOX 1 24 May 00:54:53 00:58:08 19° 267° (W) 01:01:18 145.980
TISAT 1 24 May 00:56:34 01:00:31 41° 73° (ENE) 01:04:34 437.305
CUBEBUG 1 24 May 01:02:42 01:06:33 30° 264° (W) 01:10:25 437.445
